Pittsburgh, PA

4:59 PM EDT on September 19, 2017 (GMT -0400)
Pittsburgh International

Weather History for KPIT - March, 2014

Change the Weather History Date:

Monday, March 17, 2014

  Actual Average Record
Temperature  
Mean Temperature 31 °F 40 °F  
Max Temperature 36 °F 50 °F 77 °F (2012)
Min Temperature 25 °F 30 °F 1 °F (1900)
Degree Days  
Heating Degree Days 34 25  
Month to date heating degree days 552 476  
Since 1 July heating degree days 5083 4733  
Cooling Degree Days 0 0  
Month to date cooling degree days 0 0  
Year to date cooling degree days 0 0  
Moisture  
Dew Point 14 °F    
Average Humidity 52    
Maximum Humidity 61    
Minimum Humidity 42    
Precipitation  
Precipitation 0.00 in 0.10 in 1.78 in (1936)
Month to date precipitation 0.87 1.55  
Year to date precipitation 5.30 6.64  
Snow  
Snow 0.00 in 0.30 in 3.30 in (1892)
Month to date snowfall 3.2 5.1  
Since 1 July snowfall 61.6 37.9  
Snow Depth 0.00 in    
Sea Level Pressure  
Sea Level Pressure 29.99 in    
Wind  
Wind Speed 10 mph (East)    
Max Wind Speed 17 mph    
Max Gust Speed 22 mph    
Visibility 10 miles    
Events      
T = Trace of Precipitation, MM = Missing Value Source: NWS Daily Summary

Daily Weather History Graph

Daily Weather History Graph

Search for Another Location

Airport or City:

Trip Planner

Search our weather history database for the weather conditions in past years. The results will help you decide how hot, cold, wet, or windy it might be!

Date:

Astronomy

Mar. 17, 2014 Rise Set
Actual Time 7:29 AM EDT 7:29 PM EDT
Civil Twilight 7:02 AM EDT 7:57 PM EDT
Nautical Twilight 6:30 AM EDT 8:28 PM EDT
Astronomical Twilight 5:58 AM EDT 9:01 PM EDT
Moon 8:45 PM EDT (3/17) 7:43 AM EDT (3/17)
Length of Visible Light 12h 54m
Length of Day
12h 00m
Full, 99% of the Moon is Illuminated
Mar 17
Full
Mar 23
Last Quarter
Mar 30
New
Apr 7
First Quarter
Apr 15
Full

Hourly Weather History & Observations

Time (EDT) Temp. Windchill Dew Point Humidity Pressure Visibility Wind Dir Wind Speed Gust Speed Precip Events Conditions
12:51 AM 26.1 °F 17.6 °F 7.0 °F 44% 30.07 in 10.0 mi NE 8.1 mph - N/A   Overcast
1:51 AM 27.0 °F 18.7 °F 7.0 °F 43% 30.04 in 10.0 mi NE 8.1 mph - N/A   Overcast
2:51 AM 26.1 °F 17.6 °F 7.0 °F 44% 30.04 in 10.0 mi ENE 8.1 mph - N/A   Overcast
3:51 AM 26.1 °F 16.2 °F 6.1 °F 43% 30.01 in 10.0 mi ENE 10.4 mph - N/A   Overcast
4:51 AM 26.1 °F 16.2 °F 7.0 °F 44% 30.00 in 10.0 mi NE 10.4 mph - N/A   Overcast
5:51 AM 25.0 °F 14.8 °F 7.0 °F 46% 30.01 in 10.0 mi NE 10.4 mph - N/A   Overcast
6:51 AM 25.0 °F 15.5 °F 7.0 °F 46% 30.00 in 10.0 mi ENE 9.2 mph - N/A   Mostly Cloudy
7:51 AM 25.0 °F 15.5 °F 8.1 °F 49% 30.01 in 10.0 mi ENE 9.2 mph - N/A   Mostly Cloudy
8:51 AM 26.1 °F 16.2 °F 8.1 °F 47% 30.01 in 10.0 mi ENE 10.4 mph - N/A   Mostly Cloudy
9:51 AM 28.0 °F 17.0 °F 12.0 °F 51% 30.01 in 10.0 mi ESE 13.8 mph - N/A   Mostly Cloudy
10:51 AM 28.9 °F 17.7 °F 12.9 °F 51% 30.02 in 10.0 mi East 15.0 mph - N/A   Mostly Cloudy
11:51 AM 30.9 °F 21.7 °F 14.0 °F 50% 30.01 in 10.0 mi East 11.5 mph - N/A   Mostly Cloudy
12:51 PM 32.0 °F 23.6 °F 16.0 °F 52% 30.00 in 10.0 mi ESE 10.4 mph 17.3 mph N/A   Mostly Cloudy
1:51 PM 32.0 °F 23.6 °F 16.0 °F 52% 29.97 in 10.0 mi ENE 10.4 mph - N/A   Overcast
2:51 PM 33.1 °F 24.9 °F 17.1 °F 52% 29.96 in 10.0 mi ENE 10.4 mph - N/A   Overcast
3:51 PM 35.1 °F 26.9 °F 18.0 °F 50% 29.94 in 10.0 mi ENE 11.5 mph - N/A   Overcast
4:51 PM 36.0 °F 27.1 °F 19.0 °F 50% 29.94 in 10.0 mi ESE 13.8 mph - N/A   Overcast
5:51 PM 35.1 °F 27.9 °F 19.9 °F 54% 29.95 in 10.0 mi ESE 9.2 mph - N/A   Overcast
6:51 PM 35.1 °F 27.9 °F 19.9 °F 54% 29.96 in 10.0 mi East 9.2 mph - N/A   Overcast
7:51 PM 34.0 °F 27.2 °F 19.9 °F 56% 29.96 in 10.0 mi ENE 8.1 mph - N/A   Overcast
8:51 PM 34.0 °F 26.6 °F 21.0 °F 59% 29.96 in 10.0 mi East 9.2 mph - N/A   Overcast
9:51 PM 34.0 °F 28.8 °F 21.0 °F 59% 29.99 in 10.0 mi ESE 5.8 mph - N/A   Overcast
10:51 PM 33.1 °F 26.9 °F 21.0 °F 61% 29.98 in 10.0 mi ESE 6.9 mph - N/A   Overcast
11:51 PM 33.1 °F 26.9 °F 21.9 °F 64% 29.99 in 10.0 mi ESE 6.9 mph - N/A   Overcast